Theta_e
321 321 317 319 318 318 319 317 318 320 320 320 323 327 327 322 320 319 318 316 314 316 319 318 317 319 318 317 317 314 311 312 314 315 314 313 313 313 313 313 312 313 312 308 308 309 309 310 311 312 312 314 317 318 320 322 323 325 326 328 329 329 330 331 332 332 333 333 333 334 335 335 335 335 335 335 335 334 334 333 333 333 332 331 330 329
319 319 318 319 317 316 316 316 317 317 318 320 322 324 322 319 320 316 314 317 316 315 320 319 318 319 318 317 316 313 313 314 316 316 315 314 312 312 312 312 312 312 310 310 309 308 309 310 311 311 311 312 315 317 319 321 321 324 326 327 328 328 330 331 331 332 332 332 331 332 333 333 333 334 335 335 335 335 335 334 334 333 332 331 331 330
319 321 320 316 314 314 313 314 319 322 324 325 322 321 320 319 320 317 316 318 316 315 322 325 323 319 318 318 317 315 316 314 314 315 314 314 313 312 311 310 311 311 312 312 310 307 307 310 310 311 311 312 314 317 318 320 321 323 325 327 328 328 329 330 331 331 331 331 331 331 331 331 332 332 333 334 334 335 335 334 334 333 333 332 331 329
319 321 320 315 313 315 314 315 320 322 324 326 323 322 321 320 320 319 317 318 316 314 318 323 321 317 317 320 320 316 314 314 314 313 313 312 312 311 311 311 311 312 312 313 312 310 306 307 310 310 311 312 314 316 318 320 321 323 324 326 327 328 329 329 330 330 330 330 330 330 330 330 330 330 331 332 333 333 334 334 333 333 333 333 332 330
320 318 315 315 315 318 318 315 318 319 318 320 328 332 327 323 323 319 317 319 318 316 317 319 317 322 328 329 331 324 315 315 317 317 316 314 312 311 311 312 312 312 312 312 314 314 307 305 308 310 311 312 314 316 318 319 320 322 323 324 326 327 328 328 329 329 330 330 329 329 328 328 328 328 329 330 331 331 332 332 332 332 332 332 332 331
319 314 312 317 317 321 322 317 319 322 318 317 325 332 329 329 328 322 320 322 322 318 316 313 314 330 337 330 330 325 316 316 317 317 317 315 314 317 316 314 313 313 312 312 313 313 307 304 307 310 310 311 313 316 317 318 320 321 322 324 325 326 327 328 328 328 329 329 329 328 327 326 326 326 327 328 329 330 330 331 331 332 332 332 332 332
317 313 316 321 320 320 320 319 319 320 320 317 318 322 328 332 330 326 321 318 321 317 311 312 316 323 325 319 319 320 317 321 320 318 321 318 313 319 322 321 321 318 315 315 316 313 309 306 307 309 310 312 313 315 316 318 320 321 322 323 325 325 326 327 327 327 327 327 328 327 327 327 326 326 326 327 328 329 329 330 330 331 331 332 331 331
316 317 318 322 324 320 319 320 317 318 322 319 317 322 329 332 330 331 326 321 323 318 316 323 324 318 318 316 318 319 320 325 325 324 330 323 313 316 324 324 326 325 321 321 323 323 315 307 307 310 311 312 313 314 316 318 319 320 322 323 324 325 325 326 327 327 326 327 327 326 326 326 326 326 325 326 326 327 327 328 328 329 329 330 329 330
316 322 321 322 324 322 322 323 318 319 325 320 316 321 326 328 332 335 335 332 325 315 318 327 319 315 324 326 322 319 317 321 325 322 323 320 313 315 320 321 322 322 319 318 324 328 319 308 308 311 312 313 313 314 315 317 318 319 321 322 323 324 325 325 325 326 326 326 326 326 326 325 325 325 325 324 324 325 325 325 326 326 326 327 328 328
315 318 319 321 323 322 323 321 316 321 324 318 314 319 321 325 330 332 334 330 320 315 322 326 316 313 322 329 326 317 315 321 324 321 318 317 317 318 320 322 321 322 321 321 324 319 309 308 311 311 312 314 314 314 315 317 318 319 320 321 322 322 323 324 325 325 325 325 325 325 325 325 325 325 324 323 322 322 322 322 322 322 323 324 325 327
315 313 314 317 319 321 320 317 316 319 318 315 320 323 322 326 330 332 334 324 314 319 326 322 317 312 314 326 329 317 316 322 321 323 324 323 325 325 329 332 328 330 331 329 329 317 305 308 312 311 313 314 314 315 315 316 317 318 319 320 320 321 321 322 323 324 324 324 324 324 324 324 324 324 323 321 321 320 320 320 320 320 320 321 322 324
317 315 316 316 315 318 321 320 317 316 316 320 328 327 321 325 327 329 333 323 316 325 323 317 316 314 313 324 329 322 320 319 318 322 325 325 326 326 331 332 329 331 330 329 334 327 315 314 312 311 313 314 314 315 315 316 317 317 319 319 320 320 320 321 321 322 322 322 323 323 323 323 323 323 322 321 321 320 319 319 318 318 318 318 319 320
320 319 318 316 314 317 325 326 319 319 323 323 326 327 322 324 321 321 328 323 321 322 315 316 319 314 315 320 322 325 323 319 318 319 321 323 324 328 334 335 334 333 331 333 338 336 333 324 312 310 313 313 314 315 315 316 316 316 318 318 319 319 319 320 320 320 321 321 322 322 322 322 321 321 321 320 320 319 318 318 317 316 316 316 316 317
322 323 319 317 317 316 320 324 320 321 323 319 322 325 323 323 319 320 325 319 318 318 313 315 318 316 320 318 316 320 317 317 316 316 320 320 320 325 331 335 338 336 334 339 342 344 345 325 307 309 314 312 314 314 315 315 315 316 316 316 317 317 318 318 318 319 319 319 320 320 320 320 320 319 319 319 318 317 317 316 316 315 315 315 314 314
319 322 321 320 320 318 317 321 324 325 321 318 320 319 320 327 325 323 324 320 320 321 316 313 316 324 325 315 314 317 315 316 317 319 319 318 319 321 322 327 334 337 336 339 344 345 334 314 307 311 312 312 314 314 314 315 315 315 315 316 316 316 316 316 317 317 317 317 318 318 318 318 318 318 317 317 317 316 316 316 315 315 314 314 313 313
316 318 320 318 316 318 318 319 322 323 320 318 316 314 317 324 325 320 316 318 319 319 319 316 320 329 323 315 316 316 316 318 320 324 323 321 323 321 323 328 333 341 343 340 345 349 328 307 307 312 311 313 314 313 315 315 314 315 315 315 315 315 315 315 315 316 315 316 316 316 317 316 317 317 316 317 316 316 316 315 315 314 314 313 312 312
316 317 317 316 315 317 318 317 319 321 319 318 316 319 319 317 324 322 312 312 314 313 318 318 319 324 317 314 318 316 318 321 322 324 322 322 324 323 327 327 329 342 346 340 344 347 328 307 307 311 311 313 313 313 315 314 314 315 314 315 314 314 315 314 314 315 314 315 315 315 315 315 315 315 316 316 315 315 315 314 314 313 313 313 312 312
321 320 316 316 317 315 313 316 319 318 317 320 321 322 316 311 321 324 316 320 319 315 320 318 316 320 316 316 319 316 316 319 323 324 321 321 323 325 326 318 322 339 341 336 335 331 319 306 306 311 310 311 313 313 314 314 314 314 313 314 314 313 314 314 314 314 314 314 314 314 314 314 315 314 314 315 314 314 314 313 314 313 313 313 312 312
319 319 315 315 318 316 314 317 319 316 313 320 323 319 318 319 322 319 315 322 320 316 324 323 315 314 315 317 319 315 316 320 321 321 322 323 321 325 325 316 321 334 332 332 335 335 326 310 306 311 311 311 312 312 313 313 313 313 313 313 313 313 314 313 314 314 313 314 313 314 314 313 314 314 314 314 314 314 314 313 313 313 312 312 312 312
315 315 315 314 314 316 317 318 320 319 315 316 315 313 318 324 324 320 316 318 318 316 321 323 319 316 317 318 317 314 318 322 320 319 321 322 320 323 323 317 322 329 330 334 336 341 334 310 305 311 311 312 313 312 313 313 313 314 313 313 313 313 313 313 314 313 313 314 313 313 314 313 313 313 313 313 313 313 313 313 313 312 312 312 311 311
313 310 314 315 312 316 320 319 318 320 318 318 317 316 318 318 318 321 317 316 320 321 321 320 317 320 324 320 316 314 316 321 324 321 322 323 322 320 315 315 323 329 335 338 333 337 326 305 306 313 312 314 315 314 314 314 314 314 313 313 313 312 313 313 313 313 313 313 313 313 313 313 313 313 313 313 313 313 312 312 312 312 312 311 311 311
313 311 318 320 316 318 321 316 315 319 318 317 317 317 318 317 317 319 316 315 317 318 320 319 313 319 328 321 317 317 317 318 320 319 321 322 317 315 314 317 323 330 337 336 333 336 320 304 308 315 315 317 316 315 316 315 314 315 314 314 313 313 313 313 313 313 313 313 313 313 313 313 313 312 312 312 312 312 312 312 312 311 311 311 311 310
317 318 323 324 321 321 318 312 313 317 317 316 317 317 316 316 318 318 317 318 317 313 316 319 316 315 319 316 316 318 315 314 314 312 316 318 314 317 323 325 326 329 333 334 335 329 312 306 312 315 315 316 316 315 315 315 315 315 314 314 313 313 313 313 313 312 312 313 313 313 312 312 312 311 311 311 311 312 311 311 311 311 310 310 310 310
317 318 319 321 323 323 320 316 314 314 315 316 318 318 317 318 319 319 318 319 319 317 316 317 317 315 317 319 318 318 318 319 319 314 313 316 319 322 326 328 327 328 328 330 333 320 305 305 310 310 311 313 313 314 314 314 314 314 314 314 313 313 313 313 313 312 312 312 312 312 312 311 311 311 311 311 311 311 311 311 311 310 310 310 310 309
313 316 317 318 320 320 320 321 319 315 317 319 319 318 318 321 320 317 316 315 317 322 321 317 316 316 320 323 321 322 326 325 323 319 315 317 321 323 325 326 326 327 327 328 334 330 318 312 308 305 309 311 310 312 311 311 312 311 312 312 311 312 312 312 312 311 311 311 311 311 311 311 311 310 311 311 310 310 310 310 310 310 309 309 309 309
314 317 317 316 315 314 315 317 319 319 318 318 321 320 318 320 319 316 317 317 317 322 321 316 315 314 316 318 316 319 324 320 316 317 316 319 324 325 325 325 325 328 329 328 333 334 328 320 309 305 309 312 311 311 310 310 311 311 311 312 311 312 312 311 311 311 311 310 310 310 310 310 310 310 310 310 310 310 310 309 309 309 309 309 308 309
322 319 314 313 313 312 311 314 320 323 321 318 321 321 317 318 318 317 319 319 316 318 317 315 315 314 314 316 318 321 323 322 320 319 319 321 324 326 326 326 327 330 329 327 327 327 327 326 317 308 309 313 312 311 310 309 310 311 311 313 312 312 312 311 310 310 310 309 309 309 310 310 310 310 310 310 310 309 309 308 308 308 308 308 308 308
323 318 314 314 313 312 312 314 319 322 320 319 319 318 317 317 317 317 318 317 315 316 316 314 314 314 313 313 320 324 325 327 325 324 325 325 325 327 327 327 331 333 332 329 327 324 325 329 323 309 305 309 309 309 310 310 311 311 311 312 312 311 311 310 309 309 309 308 309 310 310 310 310 310 309 309 309 309 308 308 308 307 307 307 307 307
320 317 317 316 313 313 312 314 319 320 318 319 318 317 317 316 316 317 316 316 316 316 315 315 315 316 313 312 315 318 319 324 323 321 322 323 324 326 325 327 331 331 330 328 325 322 321 326 324 309 302 305 307 309 311 311 311 310 310 311 311 311 310 309 309 309 309 309 310 310 311 310 309 309 309 309 308 308 308 308 307 307 307 306 306 307
319 321 321 316 314 315 313 315 321 321 317 318 318 317 317 316 316 317 316 315 316 315 315 315 316 316 313 312 313 313 314 318 318 316 316 319 321 325 326 327 327 325 325 325 323 321 320 321 317 305 302 308 309 308 309 310 309 309 309 310 311 310 310 309 309 309 309 309 310 310 310 309 308 308 308 308 308 308 307 307 306 306 306 306 306 306
315 321 323 316 315 317 314 315 319 319 317 317 318 317 316 316 315 315 316 316 316 316 316 315 316 315 312 312 314 314 313 313 313 313 315 316 318 322 323 322 322 324 327 325 321 321 321 321 317 307 303 307 308 307 308 308 309 309 309 310 310 309 309 309 309 309 308 309 310 309 308 308 307 307 307 307 307 307 307 306 306 305 305 305 305 305
315 320 321 318 317 318 316 316 317 316 315 315 316 317 316 315 315 314 315 315 316 316 316 316 316 315 313 315 315 314 313 313 314 315 315 315 318 320 320 320 321 323 324 322 321 325 326 324 321 311 304 305 307 307 308 308 308 308 309 309 308 308 308 307 307 307 308 308 308 308 307 307 306 306 306 306 306 306 306 305 305 305 305 305 304 304
317 318 320 320 319 318 318 319 317 315 315 315 315 315 315 314 314 314 314 314 314 315 316 316 316 314 314 317 316 315 315 315 314 314 313 314 318 321 320 320 319 320 322 322 322 325 323 315 310 306 304 306 307 307 306 306 306 307 307 307 308 307 307 307 307 307 307 307 307 307 307 306 305 305 305 305 305 305 304 304 304 304 304 304 304 303
316 317 319 319 319 318 319 318 317 316 317 316 315 314 313 313 313 314 314 314 313 313 314 314 314 313 315 317 316 315 315 315 314 313 313 316 319 320 320 318 318 321 324 321 319 319 313 304 303 305 305 306 305 304 304 304 304 305 306 306 307 307 307 308 307 307 307 306 306 306 305 305 304 304 304 304 304 304 303 303 303 303 303 303 303 302
316 316 318 318 318 318 318 317 318 319 318 317 320 320 315 312 313 313 314 313 313 313 313 314 314 314 314 315 314 313 314 316 315 314 316 318 317 317 319 319 319 320 321 319 318 315 307 301 303 305 304 304 304 303 303 302 303 304 305 306 306 306 306 306 306 306 305 305 305 304 303 303 303 302 303 303 303 302 302 303 303 303 303 302 302 302
316 316 317 317 318 318 318 317 319 321 319 319 323 323 317 314 314 314 314 314 312 313 313 313 313 312 313 313 312 314 317 317 315 315 317 317 315 314 316 317 315 314 313 311 310 308 303 302 303 303 302 303 303 303 303 302 302 304 306 306 306 305 306 306 306 305 305 305 305 304 303 303 302 302 302 302 302 302 302 302 302 302 302 301 301 301
315 315 316 316 317 318 319 318 318 321 321 320 321 321 317 317 317 315 315 315 313 312 313 312 312 312 312 312 313 315 316 314 316 317 314 311 310 310 310 308 307 306 305 303 303 303 302 302 302 301 302 303 303 302 302 302 303 304 306 306 306 306 306 307 306 305 304 305 305 305 304 304 303 303 303 302 302 301 302 301 301 301 301 300 300 300
314 314 315 316 317 317 319 320 320 321 321 318 319 320 318 318 319 317 316 317 316 315 313 312 313 312 312 313 315 316 315 314 317 318 311 307 308 308 307 302 299 299 300 299 300 301 301 301 301 301 302 302 302 302 300 300 302 302 303 304 304 305 306 306 305 304 304 304 305 304 305 304 303 303 303 302 302 302 301 301 301 300 300 300 299 299
313 313 313 314 316 317 317 320 320 320 321 320 321 322 319 317 318 316 316 318 318 317 315 313 313 313 313 314 315 316 316 316 317 315 308 306 306 306 306 302 297 297 299 299 299 299 299 300 301 301 302 302 302 301 299 299 300 300 301 301 301 303 304 304 303 302 302 302 303 303 304 303 303 302 301 301 301 301 300 300 300 299 299 299 299 299
313 313 312 313 315 315 315 317 317 317 319 319 321 323 319 314 314 317 319 319 316 313 313 314 314 314 314 314 315 317 316 317 317 312 306 304 302 300 300 300 298 296 298 298 299 299 299 299 300 300 301 300 300 300 299 299 299 299 300 300 300 303 304 302 301 301 300 301 301 302 303 302 301 300 300 299 300 299 299 299 298 298 298 298 298 298
314 313 313 313 314 314 315 316 315 316 318 319 320 322 318 313 315 319 319 316 312 307 307 309 310 310 311 313 315 315 311 308 309 307 304 303 303 299 296 297 297 297 297 298 298 298 298 299 298 298 299 299 299 298 298 298 298 298 299 298 299 301 301 300 299 299 299 299 300 301 302 301 300 299 299 299 298 298 298 298 297 297 297 297 297 297
315 315 314 314 314 314 314 315 314 315 317 315 315 316 315 314 317 317 312 309 306 305 304 305 305 305 305 307 308 307 304 302 303 304 303 302 302 299 296 295 296 296 297 297 297 297 297 297 297 297 298 298 298 297 297 296 296 297 297 297 298 299 298 297 297 297 297 298 299 300 301 301 300 299 298 298 297 297 297 297 297 296 296 296 296 296
315 316 315 315 315 314 314 315 316 317 313 308 310 313 313 314 314 310 307 305 304 304 303 302 302 303 302 303 303 302 302 302 301 302 301 300 300 298 296 294 294 295 295 295 296 296 296 296 296 296 296 296 296 296 295 295 295 295 295 295 296 297 296 295 295 295 296 297 298 299 300 300 299 298 297 297 296 296 296 296 296 295 295 295 295 295
315 316 316 316 315 315 316 315 313 311 308 305 308 311 309 307 305 305 305 304 303 302 302 300 300 300 301 302 301 300 300 300 300 299 299 299 298 297 295 294 294 294 294 294 294 294 294 294 294 294 294 295 295 294 294 294 294 293 294 294 295 294 293 294 294 293 294 295 297 298 298 298 297 296 295 295 295 294 295 295 295 294 294 294 294 293
314 313 313 314 313 312 313 312 307 304 303 303 304 305 302 301 301 302 304 303 300 300 300 299 298 298 298 300 300 298 298 298 298 298 297 297 297 296 295 294 293 293 293 293 293 293 293 292 293 293 293 293 294 293 293 292 292 292 292 293 293 292 292 292 292 292 293 293 294 294 295 294 294 294 293 293 293 293 294 294 294 293 293 293 293 292
312 309 309 312 311 308 308 308 305 303 303 302 301 300 299 300 299 300 301 301 298 297 296 296 296 296 296 297 298 297 295 295 295 295 295 295 295 294 293 293 292 292 291 291 291 291 290 290 291 291 291 291 292 292 292 291 291 291 291 291 291 291 291 291 291 291 292 292 292 293 292 292 293 293 293 292 292 293 293 293 293 292 292 292 291 291
309 307 308 311 311 310 309 308 306 304 303 301 299 298 297 296 296 296 297 296 294 294 294 294 294 293 293 294 295 294 293 292 292 291 291 291 291 291 291 291 290 290 289 289 288 288 288 289 289 289 289 289 289 290 290 289 289 290 289 289 289 289 290 290 290 291 291 292 292 293 292 292 292 293 293 293 292 292 292 293 292 291 291 291 291 290
308 307 309 311 311 309 308 305 303 302 300 299 299 298 296 294 292 291 291 291 290 290 291 291 291 290 290 291 291 291 290 289 288 288 288 288 289 289 289 288 288 287 287 286 286 286 287 287 287 287 287 287 287 287 287 287 287 288 288 288 288 288 289 289 289 289 290 290 291 292 292 292 291 291 291 292 291 291 291 292 291 291 291 291 291 290
306 307 309 311 309 306 304 302 302 302 301 299 296 294 293 292 290 288 287 286 286 286 287 288 288 287 287 287 286 287 287 286 285 285 285 285 286 286 286 285 284 284 283 284 284 285 285 285 285 285 285 285 285 285 285 285 286 286 286 286 286 287 287 287 287 287 288 289 289 290 290 290 290 290 289 289 290 290 291 291 291 291 291 291 291 291
304 307 308 308 308 308 305 302 302 304 305 301 295 291 290 289 288 286 285 284 283 283 284 285 286 285 285 284 282 282 283 283 282 281 281 282 283 284 282 281 281 281 281 282 282 282 282 281 281 281 281 282 283 283 283 284 284 284 284 285 285 285 285 285 285 285 286 287 287 288 289 289 289 288 288 288 289 289 290 291 291 290 290 290 290 290
305 309 308 308 309 309 306 304 303 305 305 300 293 288 287 286 286 285 283 282 281 281 281 282 284 284 283 281 280 280 280 279 278 278 278 279 280 280 279 278 278 279 279 280 279 279 278 278 278 278 279 279 280 281 282 282 282 282 283 283 283 283 283 283 283 283 284 285 286 287 287 287 287 287 287 287 288 288 288 289 290 290 290 289 289 289
Wind_Speed
3 4 3 5 7 9 9 7 6 5 6 7 6 5 4 4 3 4 3 5 0 3 4 4 5 9 11 12 12 11 6 4 9 10 10 10 9 10 10 10 10 11 12 12 16 19 19 21 23 25 28 30 29 29 30 31 33 35 36 36 37 38 38 38 38 38 38 37 35 35 35 35 35 36 36 34 35 36 36 36 35 35 38 40 40 41
4 5 8 7 8 7 6 7 7 7 6 6 6 5 2 3 3 2 1 5 3 1 4 2 3 10 11 12 13 10 8 9 11 12 13 13 11 10 10 12 11 9 10 10 12 16 17 18 20 21 23 26 28 30 32 33 35 35 35 37 37 37 38 39 40 40 40 40 38 36 36 36 33 33 35 36 36 37 35 35 36 35 36 38 41 43
2 4 9 6 4 6 6 5 7 7 6 5 4 6 3 2 2 3 3 4 5 1 4 5 5 10 10 11 12 12 11 10 10 11 12 12 11 11 10 10 10 9 10 10 11 14 18 19 18 19 21 25 28 30 32 33 33 34 35 36 36 36 37 39 40 40 40 40 39 37 35 35 34 32 33 34 35 36 36 36 35 35 36 38 39 41
3 6 7 5 7 8 5 3 7 7 4 4 4 5 3 2 1 1 3 4 4 2 1 4 6 9 7 6 11 12 10 8 9 10 11 10 11 13 10 8 9 10 12 11 9 11 15 17 16 18 21 24 26 27 29 31 32 33 35 36 36 36 37 38 39 39 39 37 36 34 32 31 31 32 32 32 33 34 35 36 36 35 36 38 39 38
5 5 2 8 6 7 7 3 6 6 1 0 3 5 4 3 4 3 2 2 3 4 3 4 6 7 4 4 8 7 4 6 6 7 9 10 10 11 9 8 10 10 10 10 10 9 10 13 16 18 20 21 24 27 29 31 33 33 34 35 35 35 36 36 37 38 37 35 33 31 27 25 25 27 28 30 33 33 34 35 37 37 36 35 35 36
6 4 4 9 5 6 8 4 5 7 4 2 3 6 7 7 6 3 2 4 4 4 4 4 3 6 5 5 8 6 6 7 6 6 11 11 7 8 8 9 9 9 9 8 9 9 8 13 16 16 17 19 23 27 29 30 31 31 32 32 33 33 34 35 35 36 36 35 34 31 29 26 24 25 27 30 33 34 35 36 36 37 38 36 34 34
2 1 3 7 6 6 6 3 5 6 6 2 4 5 6 7 8 6 4 4 1 3 3 3 2 5 7 6 8 6 7 10 10 9 13 12 7 6 7 8 8 8 8 7 8 8 8 11 13 14 18 21 24 25 26 26 27 28 29 29 31 32 33 33 34 34 35 35 35 34 33 32 31 30 32 34 35 35 36 36 36 36 37 38 37 36
3 3 5 6 6 6 5 3 5 7 8 3 4 6 8 8 8 7 6 4 2 3 4 4 4 2 7 6 6 4 6 10 11 11 12 10 6 5 6 8 8 8 7 6 7 7 7 11 13 16 18 20 21 21 21 23 24 26 27 27 28 29 30 31 32 33 34 35 35 35 35 35 35 35 34 34 34 35 35 35 37 37 38 38 39 39
2 4 4 6 6 4 4 4 5 8 6 4 3 6 7 7 7 5 6 4 1 2 4 4 2 2 6 7 5 4 4 8 10 12 12 9 8 7 8 8 8 8 6 6 7 7 7 10 12 14 13 14 16 16 17 20 22 23 24 25 25 27 28 29 30 31 33 34 35 35 36 35 36 36 34 31 31 32 33 35 37 37 39 39 39 40
1 4 6 6 6 5 4 1 3 4 2 3 6 8 6 6 6 5 5 4 3 2 4 5 3 2 5 7 5 2 3 7 10 10 9 9 9 8 8 8 7 6 5 6 7 7 9 9 7 7 8 9 12 14 15 16 18 20 22 23 24 25 26 27 28 30 31 33 34 35 36 36 36 35 33 31 29 29 30 32 34 35 37 38 38 38
2 2 2 3 4 5 4 3 1 1 4 7 7 7 7 6 5 4 3 4 3 3 6 6 3 2 4 7 5 4 5 6 5 7 8 8 9 7 6 6 6 5 5 5 4 5 8 6 3 4 6 7 8 11 13 14 16 18 20 21 22 23 24 25 27 28 29 31 33 35 36 36 36 35 33 32 31 30 30 31 33 33 34 36 37 39
4 2 1 1 1 4 6 5 4 4 4 6 5 5 5 3 4 4 4 3 1 5 6 5 2 3 4 7 5 6 7 6 5 6 8 9 9 8 5 4 4 4 5 4 2 2 2 2 4 5 6 6 8 10 12 14 15 16 18 19 21 21 23 24 25 26 28 30 32 34 35 36 36 35 34 34 34 34 33 34 34 33 33 34 36 38
2 0 2 3 1 4 6 5 5 5 5 5 5 6 5 2 3 2 3 0 3 6 3 3 2 3 6 8 7 10 10 8 8 7 8 8 8 8 6 6 5 4 5 4 3 3 1 3 5 6 7 7 8 10 12 13 14 16 17 18 20 21 22 23 24 25 27 29 32 33 34 35 35 35 35 35 36 35 35 34 34 33 33 34 35 37
1 4 2 1 2 2 6 6 4 1 0 4 5 5 4 3 2 2 4 2 4 4 3 3 2 3 5 5 8 13 10 5 6 7 8 7 8 8 7 6 6 5 5 4 4 4 3 4 4 5 7 8 9 10 11 13 14 15 17 18 20 21 21 22 23 25 27 29 30 31 32 33 34 35 35 36 36 35 34 34 34 34 34 34 35 36
4 4 4 4 2 3 5 5 6 7 3 3 4 5 5 5 4 4 4 3 4 3 3 3 1 3 3 3 6 10 8 6 6 7 6 6 7 7 7 7 7 6 5 5 5 5 5 6 6 4 6 8 9 10 10 12 13 15 16 18 19 20 20 22 23 24 26 28 28 29 31 32 33 34 35 35 35 35 35 34 35 35 35 35 36 36
4 5 5 2 2 6 6 3 5 7 2 2 2 5 3 5 5 2 3 5 3 2 3 2 4 5 4 6 9 7 7 8 7 6 5 6 6 5 5 6 6 5 4 5 5 5 6 7 7 7 8 9 9 10 11 12 13 14 15 17 18 19 20 21 22 24 25 26 27 28 30 31 32 33 34 35 35 35 35 35 35 36 36 36 36 35
3 3 5 4 2 3 3 2 3 4 3 2 2 3 5 4 7 5 2 1 3 1 4 1 5 6 4 7 9 6 8 9 7 7 6 7 7 6 6 4 4 5 5 6 6 5 5 6 7 9 10 11 10 11 11 11 12 13 14 16 18 19 20 21 22 23 24 25 26 28 29 30 31 33 34 35 35 35 34 35 36 36 36 36 36 35
5 1 4 2 1 2 1 2 3 3 3 5 3 5 4 2 4 4 2 3 4 3 4 1 5 5 2 5 6 4 6 9 9 8 7 7 7 7 6 2 4 7 5 6 7 5 6 7 9 11 11 11 11 11 11 10 11 12 14 15 17 18 19 20 20 21 22 24 26 27 29 30 31 32 33 34 34 34 34 35 36 35 36 36 35 35
5 2 4 2 2 4 4 3 1 4 3 5 4 3 4 3 1 2 2 1 1 3 4 4 5 4 5 6 4 1 7 9 10 9 8 8 7 8 6 2 4 7 5 6 6 5 6 8 11 13 12 11 10 11 11 10 11 12 14 15 17 18 19 19 20 21 22 23 25 26 28 29 31 31 32 33 33 34 34 36 36 35 36 35 34 34
4 4 3 2 1 2 4 2 5 1 4 4 2 3 3 2 4 3 3 4 3 3 3 4 4 3 7 7 5 8 9 9 10 9 8 9 8 8 6 0 2 6 6 5 5 5 6 8 13 14 13 12 10 11 11 11 12 13 13 15 17 18 19 19 21 21 22 23 24 26 27 29 31 32 32 33 33 34 35 36 36 36 36 35 34 34
2 3 4 3 3 1 2 3 6 7 4 2 3 4 2 1 2 2 1 2 4 4 3 3 5 6 6 4 8 11 9 9 10 9 9 10 9 7 3 1 4 6 6 5 4 5 5 9 13 12 10 11 10 11 12 12 12 13 13 16 17 18 20 21 21 22 22 23 23 25 27 28 30 31 32 33 33 35 36 36 36 36 35 35 35 34
3 3 4 2 0 3 4 3 3 7 7 7 6 7 7 5 4 3 3 1 3 3 4 3 5 8 6 4 7 8 8 9 9 8 8 9 8 7 5 4 6 5 5 5 4 4 5 7 8 6 5 8 10 13 13 12 12 13 15 16 17 19 21 21 21 22 22 23 24 26 27 28 30 31 32 33 34 35 36 37 37 36 35 35 36 35
3 4 4 3 4 6 5 4 1 3 2 3 4 5 6 6 6 6 5 4 2 1 2 4 2 8 5 4 6 6 6 6 5 5 7 7 7 7 7 6 5 5 5 5 4 4 5 4 2 2 5 10 13 14 13 12 13 14 15 17 18 19 20 21 21 21 22 23 26 27 28 28 29 30 31 32 34 36 36 37 37 35 35 36 36 35
2 4 4 1 3 3 5 5 3 2 2 2 4 3 5 4 4 5 5 4 4 3 3 3 3 8 4 1 3 4 5 6 5 4 7 7 6 4 4 4 4 6 5 4 4 4 5 4 3 6 11 12 12 10 9 10 12 13 14 16 18 19 20 21 22 22 23 24 26 27 28 28 29 30 31 33 34 36 36 36 36 35 36 36 36 36
4 3 4 3 1 3 4 4 3 1 2 3 3 3 4 4 6 5 2 2 1 5 7 5 7 8 5 5 3 3 6 6 5 4 6 5 1 1 1 4 6 3 1 3 3 2 3 3 5 8 9 8 7 7 8 9 10 11 13 15 17 19 20 22 23 23 23 24 25 26 27 28 29 30 31 33 34 35 35 34 35 35 36 36 36 36
6 4 5 6 6 6 6 5 5 4 3 1 2 4 5 7 9 5 2 3 4 7 7 6 9 8 3 4 3 3 5 3 1 2 4 3 3 3 5 6 5 1 3 5 5 4 4 4 6 8 9 9 9 10 10 11 12 13 15 15 15 17 19 20 22 23 23 24 24 25 27 28 29 29 31 32 33 34 34 34 34 34 35 36 36 37
3 3 5 9 11 12 11 8 5 9 7 6 9 10 9 9 11 8 4 5 9 8 5 9 12 12 8 3 3 6 5 4 3 2 3 4 5 6 6 6 6 3 2 4 5 5 6 6 7 9 10 10 11 12 12 13 14 14 14 13 12 14 16 18 19 21 22 22 23 25 27 28 28 29 30 31 32 32 33 33 33 34 35 35 36 37
4 3 8 9 12 12 10 7 6 10 11 14 16 14 12 12 13 12 10 12 12 7 10 14 11 12 16 9 6 9 7 5 6 5 5 6 6 6 5 5 7 6 5 5 5 5 6 6 6 8 9 7 9 13 15 15 15 13 12 12 12 13 14 15 16 17 18 19 21 24 26 26 27 28 29 30 30 31 32 33 33 34 34 34 36 38
5 5 7 8 11 14 9 5 7 9 10 12 15 16 15 15 15 15 17 18 14 10 14 15 10 13 18 13 10 11 9 8 8 6 6 5 5 6 6 6 6 6 5 6 6 6 6 7 6 5 6 9 14 16 17 16 15 13 12 12 12 13 13 13 14 15 16 18 20 23 24 25 26 27 28 29 30 30 31 32 32 33 33 34 36 38
4 4 6 8 9 14 12 7 9 10 9 8 12 14 15 16 18 20 21 22 20 16 15 16 13 15 17 12 10 11 10 9 6 2 4 5 5 6 6 7 8 7 6 7 7 7 7 6 4 6 11 15 16 16 15 15 14 13 12 12 12 13 13 13 14 15 16 18 21 22 24 25 26 26 27 28 29 30 30 30 31 31 32 34 36 37
3 4 4 6 5 9 11 8 9 10 9 9 10 10 11 13 17 20 20 18 16 14 15 17 16 16 14 9 8 9 7 6 6 6 7 8 7 8 9 10 10 7 7 8 8 7 6 5 6 7 9 12 12 13 13 12 12 11 11 12 12 13 13 14 14 15 16 19 21 22 23 24 25 25 26 27 28 29 29 29 29 30 32 33 35 36
3 3 0 4 4 8 8 7 8 7 5 6 8 10 12 13 14 15 14 13 13 13 15 15 13 16 13 6 6 9 6 6 8 10 9 9 9 10 11 11 9 7 8 8 7 7 7 7 7 7 8 10 10 10 10 10 10 10 10 12 12 13 14 15 15 15 17 19 21 22 23 24 24 25 26 27 27 27 28 28 29 30 32 33 34 35
3 3 1 3 4 8 6 5 8 5 2 5 10 15 17 15 13 11 10 13 16 15 12 12 13 16 9 5 6 8 6 8 11 10 9 9 9 10 11 10 8 7 8 8 7 7 7 6 7 8 8 9 9 9 8 8 8 9 11 12 13 14 14 15 15 16 17 18 19 20 22 22 23 24 25 26 26 26 26 27 29 30 31 33 34 34
2 2 3 3 4 8 5 6 7 4 7 10 10 13 18 18 15 13 14 17 18 14 10 10 12 12 6 6 10 11 9 9 8 6 6 7 8 8 8 7 7 7 8 7 6 6 6 6 7 8 8 9 9 8 8 7 7 10 12 13 14 14 14 15 16 18 18 18 18 19 20 20 21 23 24 24 25 25 25 27 29 30 31 32 33 33
2 2 2 2 2 4 2 6 4 9 12 10 5 6 12 17 18 18 18 19 17 14 13 14 15 14 12 11 11 9 8 6 2 3 6 6 5 6 7 6 6 5 5 6 5 5 5 5 8 10 9 10 11 10 10 10 12 14 15 15 16 16 16 17 18 19 20 20 20 20 20 21 22 23 24 24 24 24 26 27 29 30 30 31 33 34
4 3 2 1 2 1 2 5 8 7 4 4 3 3 5 8 12 14 15 17 16 13 13 16 19 20 17 13 9 5 4 2 1 3 5 3 2 2 3 4 3 1 2 3 2 2 5 7 9 10 11 13 14 13 14 15 17 18 18 18 19 19 19 20 21 21 21 21 22 23 23 24 26 26 27 27 26 26 28 29 30 30 30 31 33 34
6 4 2 2 4 3 4 8 6 4 5 5 6 5 3 5 8 9 9 13 13 12 12 14 18 20 16 13 10 4 5 1 4 5 2 2 4 3 1 2 3 3 3 4 4 4 6 8 9 11 12 14 15 16 18 19 19 20 20 20 21 21 22 22 23 23 23 24 25 26 27 28 29 30 31 30 30 30 31 31 31 31 30 30 33 34
8 6 5 4 4 3 4 7 4 4 9 9 5 3 4 6 9 10 8 9 8 11 14 15 17 18 15 12 8 4 6 2 7 6 2 2 4 5 4 5 6 6 7 8 9 9 9 10 12 13 14 16 17 18 20 20 20 20 20 20 21 22 23 23 22 22 24 26 27 28 29 29 30 30 31 31 31 32 33 33 33 32 30 30 32 34
9 7 5 5 4 3 3 5 4 4 7 7 4 4 4 5 7 8 6 8 5 7 11 14 15 16 14 10 5 7 6 6 8 5 1 2 4 4 4 6 8 10 11 11 12 12 13 14 15 15 16 18 19 20 21 21 20 20 20 20 21 22 23 22 22 23 26 27 28 29 29 29 29 29 29 30 31 31 32 33 33 32 31 30 31 33
8 5 4 6 6 6 6 6 4 3 4 5 5 6 4 5 9 7 5 7 3 1 2 8 11 11 9 6 5 7 6 7 6 4 3 1 3 4 5 6 9 12 14 16 16 15 16 17 17 18 18 19 20 22 22 22 21 21 21 22 22 23 23 24 25 26 28 29 29 30 30 30 30 29 29 30 31 31 32 32 32 32 31 31 31 32
6 4 5 7 8 8 9 8 5 4 6 7 7 5 4 5 6 6 7 4 1 3 3 2 1 3 2 2 5 4 4 2 3 4 4 4 4 5 7 9 11 12 14 16 16 17 18 19 18 18 18 19 20 22 23 23 23 23 23 24 24 24 25 26 27 29 30 31 32 32 32 31 30 30 30 29 30 31 32 31 31 31 31 31 31 31
5 4 5 7 8 7 7 7 6 5 4 3 2 4 5 4 4 5 3 1 3 4 5 6 6 6 5 6 6 4 2 3 4 5 5 5 5 5 7 10 12 13 14 16 16 17 18 20 20 20 21 22 23 23 23 22 22 22 22 23 24 26 27 28 30 31 32 33 34 34 34 33 32 30 30 30 29 30 32 32 30 30 30 29 30 30
6 5 4 5 6 5 5 6 6 4 1 2 1 2 4 4 3 2 2 3 3 4 6 6 6 6 6 7 7 6 5 5 6 6 6 5 5 5 6 8 9 11 13 15 15 16 16 18 19 21 23 24 24 24 22 21 21 21 21 23 25 27 28 30 31 32 33 34 35 35 35 35 34 32 31 30 28 28 31 32 30 29 29 27 28 28
5 5 4 5 4 4 5 5 4 2 3 3 1 2 1 1 1 1 3 3 4 4 4 5 6 5 5 6 6 6 6 5 5 5 5 5 5 5 6 8 9 11 12 13 14 15 15 15 16 19 22 23 23 23 21 19 19 20 21 23 26 28 30 32 32 32 34 35 35 36 36 35 35 33 31 30 28 28 30 31 30 29 28 26 26 26
4 3 2 2 3 3 3 2 1 1 2 2 2 3 3 2 2 4 6 5 3 3 3 4 5 5 5 6 6 5 5 4 2 3 3 4 4 5 5 7 9 11 12 13 14 15 16 15 16 19 21 23 24 24 23 20 19 20 22 25 28 30 31 33 33 33 34 35 34 34 34 34 35 34 32 30 28 27 29 30 29 29 27 25 24 24
2 2 4 2 1 0 2 2 2 2 2 4 5 4 4 4 3 4 6 6 4 3 3 4 4 4 4 5 5 4 4 3 2 2 0 2 3 4 5 6 8 11 12 14 16 17 18 18 18 18 21 24 26 27 27 25 22 22 25 28 29 30 32 33 33 34 34 35 35 34 33 33 35 35 34 32 29 28 29 29 28 29 28 25 23 24
1 2 3 2 3 1 0 3 5 4 3 4 5 4 5 5 5 4 5 5 4 4 4 4 4 4 4 4 5 3 2 3 2 1 0 1 1 2 3 4 7 10 12 14 16 18 19 18 18 18 20 23 25 27 28 28 27 26 28 30 30 30 32 33 33 34 35 35 36 36 35 35 36 37 36 35 32 30 29 29 27 27 28 26 23 23
1 3 3 3 4 3 1 3 5 4 3 3 4 3 4 5 5 6 6 5 4 4 4 4 4 4 4 4 4 2 1 2 3 2 1 1 1 1 1 4 6 9 10 12 14 15 15 15 16 17 19 21 23 25 26 27 28 29 30 31 31 30 31 33 33 34 36 36 35 35 35 34 34 35 35 35 34 31 30 30 27 27 29 28 25 24
1 2 3 3 3 2 2 3 5 4 2 2 3 3 3 3 5 6 6 5 4 4 4 4 5 5 5 4 3 2 2 2 3 4 4 4 3 3 5 7 8 10 12 13 14 15 15 15 16 17 18 20 21 23 24 25 27 28 29 30 31 30 31 33 33 34 36 36 34 34 33 32 32 32 31 33 33 32 31 30 28 28 31 31 28 27
3 3 1 3 4 2 3 6 8 4 2 4 5 4 2 2 5 6 5 4 4 3 3 3 3 4 5 5 4 3 3 3 4 6 5 4 5 7 10 12 12 12 14 16 16 17 17 17 18 19 20 20 21 22 24 25 27 28 28 28 29 29 30 32 33 34 35 34 32 32 31 31 31 31 30 30 31 32 32 32 29 27 29 31 29 27
4 5 4 4 4 4 5 9 9 4 1 3 6 6 3 3 5 6 5 4 3 3 2 2 2 2 3 5 6 6 4 4 6 7 6 5 7 9 11 13 14 15 16 18 18 19 21 21 21 21 22 22 22 23 25 26 27 27 27 27 27 27 29 30 30 32 33 32 31 32 32 31 32 32 31 30 30 29 29 31 31 29 27 28 27 26
Wind_Direction
93 126 179 185 190 196 196 178 146 145 139 136 132 115 145 175 240 258 272 304 347 142 251 236 235 262 268 273 272 276 302 298 274 274 266 261 260 257 255 253 247 242 251 258 257 254 249 248 248 246 243 237 234 232 229 226 224 224 223 221 221 220 217 215 215 215 215 216 217 219 220 221 221 221 223 225 225 223 223 221 219 220 222 223 223 222
84 155 212 210 195 184 163 145 115 97 90 100 132 131 141 185 225 258 251 317 354 150 269 359 311 266 258 267 271 274 282 265 251 253 256 254 251 252 252 253 254 256 269 273 263 258 252 249 248 243 238 231 228 228 225 225 225 224 221 221 222 220 216 215 215 215 216 217 217 218 219 222 223 224 225 228 230 228 227 227 225 227 227 224 222 222
86 215 230 209 147 102 97 120 105 90 89 87 115 133 152 212 241 287 298 331 11 84 272 352 336 274 256 257 263 259 255 251 243 241 249 255 255 252 247 248 256 264 270 269 264 261 256 250 246 240 233 228 228 227 224 224 223 221 220 220 221 220 218 217 217 217 219 221 221 221 222 223 224 226 227 228 230 229 228 229 229 231 233 230 226 220
169 250 238 166 131 113 96 88 96 89 82 89 109 132 174 239 167 249 297 328 11 72 270 337 317 282 273 269 265 258 256 266 266 254 251 252 253 255 251 246 245 248 255 262 265 265 261 256 246 236 230 228 225 223 222 221 220 220 220 220 219 219 220 219 218 219 220 221 221 222 224 226 226 228 229 229 229 228 227 229 230 231 232 232 231 224
202 259 178 122 126 125 118 124 125 128 133 77 143 143 164 197 169 186 280 333 0 19 30 15 324 292 310 325 285 279 302 288 275 281 273 252 245 257 264 253 241 241 245 249 255 258 259 255 245 235 230 226 221 220 221 220 220 221 221 221 220 220 221 220 220 219 218 218 217 217 218 222 224 225 226 226 228 228 227 227 228 229 230 230 230 229
226 263 128 121 108 99 118 163 181 159 162 268 220 178 172 170 162 161 53 53 31 351 350 27 343 287 314 321 275 287 330 303 287 298 282 267 248 244 254 255 247 246 245 241 248 251 249 250 249 241 231 224 222 223 224 222 221 221 222 221 220 220 221 221 221 219 217 216 215 214 213 214 216 219 222 223 225 226 227 229 228 228 229 230 230 231
222 350 94 129 127 105 113 174 213 160 131 221 235 174 147 131 130 139 114 88 106 258 310 48 127 263 307 292 260 293 330 302 294 295 280 275 266 237 236 251 249 248 248 247 253 252 247 247 245 238 229 224 225 227 225 222 221 221 222 222 221 221 222 221 221 219 217 216 216 216 217 217 218 220 225 227 228 228 229 231 231 231 231 231 232 232
167 79 66 97 104 108 127 187 210 148 127 220 231 130 121 121 133 142 117 106 190 239 325 15 118 229 292 268 262 319 327 300 296 289 277 277 288 266 241 245 248 248 245 244 255 256 247 238 231 231 230 226 227 227 223 220 221 221 222 224 223 223 223 222 221 220 219 218 218 219 220 222 224 226 230 231 232 232 233 233 234 234 234 235 236 237
145 149 160 126 101 129 181 210 189 136 119 235 201 119 117 122 128 121 100 95 52 356 312 308 136 188 269 274 303 339 306 290 282 273 274 287 301 282 258 253 253 255 248 240 248 257 255 243 233 233 234 229 226 225 223 222 222 221 222 223 223 223 223 223 222 222 222 222 222 223 223 224 228 230 233 235 235 235 235 236 235 235 235 235 236 237
54 191 192 141 130 181 198 220 180 137 112 187 138 97 76 76 79 78 90 97 49 2 253 237 189 196 266 281 304 324 276 264 263 268 276 286 291 277 266 265 263 267 265 250 244 251 263 263 252 239 231 228 224 221 222 221 220 220 220 221 222 224 224 224 224 223 223 224 224 225 225 227 229 231 232 235 237 237 236 237 237 236 235 235 235 235
314 278 211 121 150 185 146 92 92 100 127 137 108 75 60 39 36 48 54 80 66 293 256 240 215 177 273 276 258 232 227 220 242 287 294 300 308 296 277 272 270 279 287 273 250 253 270 269 248 225 217 216 216 215 216 218 218 218 219 221 222 224 225 225 225 225 225 225 226 227 228 230 232 232 233 234 236 237 237 239 240 240 238 237 235 235
348 26 291 276 150 133 100 72 31 24 85 107 86 86 88 9 11 25 359 44 128 254 261 266 246 149 227 258 250 247 252 227 217 266 285 297 309 305 310 326 312 302 312 320 279 257 273 219 191 194 200 205 207 210 212 214 217 217 218 221 223 224 225 225 226 227 228 228 229 230 231 234 235 236 236 237 239 240 240 242 243 243 241 239 237 235
355 54 293 319 243 147 110 82 40 8 24 76 92 95 94 2 7 353 309 335 222 247 269 286 248 192 235 247 254 264 269 246 218 228 252 268 285 300 335 352 335 324 332 338 317 290 264 204 198 184 190 204 206 209 212 214 217 218 220 222 224 227 227 227 228 229 230 231 232 233 234 237 239 239 241 242 243 244 245 246 245 245 244 242 240 237
280 304 308 54 283 205 142 129 130 198 55 121 134 124 124 124 97 260 267 278 259 260 293 294 254 260 276 265 246 250 258 251 222 229 241 248 264 283 312 325 314 317 323 317 304 295 280 252 231 196 197 210 211 214 216 217 220 221 223 224 228 231 230 230 231 231 233 234 236 237 239 241 241 242 244 245 247 247 248 249 249 249 248 248 247 244
186 270 225 170 217 194 172 173 154 147 150 172 157 131 146 157 157 208 217 209 246 278 308 299 246 209 233 285 255 247 267 288 262 252 255 256 259 270 295 299 290 294 303 300 294 283 275 270 261 235 221 220 219 222 220 221 225 225 228 230 232 234 233 233 234 234 236 238 239 240 241 243 243 245 247 248 249 250 250 251 252 252 252 252 252 251
165 247 257 275 252 164 171 213 130 114 113 234 121 106 165 184 143 140 185 176 177 324 310 262 235 217 214 276 279 268 288 295 280 277 275 272 282 292 285 276 279 293 292 281 274 266 264 262 257 248 239 232 225 225 226 226 228 232 236 238 239 241 240 240 240 240 241 242 243 244 244 245 245 246 247 248 250 251 251 252 253 254 255 255 256 255
154 260 296 339 338 139 156 210 120 117 164 167 134 173 209 170 114 113 228 40 77 262 277 220 249 287 322 287 285 293 299 305 302 292 282 281 299 304 283 274 285 279 260 254 257 258 272 275 262 251 244 239 232 229 233 233 235 240 243 244 246 246 244 245 245 245 247 247 246 247 247 247 247 247 248 250 251 252 253 254 254 255 256 256 256 256
154 217 306 30 126 289 297 124 57 31 118 129 180 206 185 104 85 109 194 355 43 245 276 268 245 281 315 274 310 338 285 289 291 286 292 296 296 290 284 251 244 258 253 262 268 272 284 284 274 265 256 250 244 242 244 244 244 246 246 248 250 250 249 249 251 251 252 251 251 251 251 250 250 250 251 252 253 254 254 254 254 255 256 257 256 256
138 147 306 15 172 293 350 101 82 357 63 127 182 175 115 137 185 94 150 187 129 236 277 293 274 261 212 234 308 285 221 243 264 274 286 283 269 270 273 190 229 272 279 275 278 286 285 280 277 275 270 264 258 254 253 251 250 248 249 253 254 256 257 257 257 256 256 255 255 256 256 256 255 254 254 254 253 253 253 254 255 255 256 257 257 257
132 149 263 325 271 303 15 129 196 210 41 53 92 100 81 141 170 158 156 167 170 198 252 304 318 269 226 214 204 217 218 216 235 255 269 267 252 252 266 229 258 276 278 274 279 281 278 279 278 276 274 271 266 263 260 254 252 252 253 256 256 258 259 259 258 257 258 259 259 260 260 260 259 257 256 255 254 253 254 255 255 255 256 257 258 257
126 161 220 303 336 205 195 221 188 164 144 111 127 158 182 83 106 163 179 127 140 163 192 271 290 265 248 207 191 211 220 210 215 226 241 254 254 256 273 246 244 261 273 277 277 278 286 285 278 272 272 274 268 262 258 252 253 255 255 256 257 258 258 257 258 258 260 262 262 262 263 263 262 261 259 257 255 254 256 256 255 255 256 257 257 257
153 161 171 156 265 203 228 265 180 172 176 169 176 188 185 165 130 159 237 226 124 155 174 183 263 267 250 204 197 206 214 216 215 216 232 254 277 299 305 252 237 251 268 271 277 283 281 278 274 264 259 260 253 249 248 249 253 255 257 260 260 260 259 259 261 262 264 266 265 266 266 266 265 263 261 259 257 256 257 256 256 256 255 256 256 256
122 113 128 164 217 217 243 283 212 190 180 163 200 195 177 178 153 155 212 223 132 183 169 125 266 274 252 192 206 221 231 238 238 232 248 276 293 293 294 286 259 238 240 252 265 260 248 248 256 226 227 232 234 239 244 250 254 257 261 264 263 262 262 263 265 267 268 268 268 269 269 268 267 264 263 261 259 259 258 258 257 256 255 256 257 256
104 114 136 214 299 307 311 331 11 59 96 199 236 184 156 190 159 139 179 178 152 200 173 111 258 267 285 303 246 266 279 279 279 242 236 264 288 285 294 297 247 219 230 245 240 235 232 224 216 227 234 236 241 253 263 265 265 267 269 269 268 269 271 271 270 269 270 270 270 270 269 269 268 266 264 263 262 262 261 260 259 257 257 257 257 256
193 166 135 124 358 337 332 331 320 266 188 212 233 169 148 136 102 93 116 118 198 222 177 165 240 254 300 332 299 307 320 311 309 273 226 222 234 75 243 243 224 209 337 317 284 263 237 232 244 250 256 268 286 300 302 299 299 297 296 291 284 280 280 278 274 273 274 274 273 272 271 270 269 266 266 266 265 265 264 262 260 259 258 257 256 255
187 183 150 158 189 210 212 216 220 198 172 219 214 176 172 147 138 161 162 125 231 233 172 183 239 253 306 330 291 304 323 313 307 287 259 221 176 198 222 234 239 289 350 319 311 323 327 307 293 297 313 324 325 325 328 330 329 325 320 313 300 290 286 283 281 280 280 278 277 277 276 275 272 270 270 270 270 270 268 265 263 261 259 258 256 255
142 189 194 195 206 211 213 213 166 132 147 208 213 194 188 179 174 179 153 173 220 230 210 222 237 249 257 248 264 281 269 223 199 209 259 255 233 230 235 250 265 274 287 290 295 310 317 305 294 301 310 316 324 333 340 341 338 335 330 323 312 300 294 292 290 287 285 282 281 281 282 281 280 278 277 276 275 275 272 269 267 264 262 260 257 255
106 217 217 210 224 230 224 212 166 152 172 200 208 200 190 188 184 184 197 215 217 219 241 236 221 241 253 233 221 256 250 233 241 224 222 244 247 246 259 285 298 308 316 306 294 293 294 287 277 270 267 286 330 344 347 346 343 340 330 322 317 309 305 304 298 293 292 289 286 287 289 289 288 286 284 282 280 277 275 272 270 268 266 263 259 257
137 219 218 198 228 243 235 189 171 186 192 199 208 204 193 189 188 194 212 222 215 208 239 241 205 219 248 239 215 229 228 225 234 210 197 225 250 265 283 295 292 289 291 288 280 266 259 264 271 278 303 338 350 350 349 347 342 338 328 321 322 321 320 317 308 303 301 295 291 294 296 296 293 290 288 285 282 280 277 275 273 271 268 264 261 260
155 225 218 186 219 246 240 197 176 195 204 210 217 208 196 194 195 201 214 222 222 220 235 248 236 231 245 240 220 225 224 226 234 194 190 227 242 254 267 269 266 265 269 274 273 263 259 276 317 351 350 346 344 343 344 343 339 337 332 329 331 332 331 324 315 311 304 297 297 300 300 298 296 293 290 287 285 283 281 278 275 272 269 267 264 261
192 234 214 162 197 249 243 210 187 197 205 216 230 225 210 204 206 213 219 221 226 230 237 248 255 255 251 234 224 234 223 223 250 257 249 253 256 257 262 266 269 276 278 277 281 286 299 333 357 356 340 330 334 343 346 344 342 339 335 334 334 333 331 324 318 312 304 301 303 303 302 300 299 296 293 290 288 286 283 281 278 274 271 269 266 263
186 227 348 122 183 245 240 194 179 190 207 233 247 237 219 211 213 218 220 219 219 222 233 241 249 257 252 206 211 236 204 193 234 241 241 250 253 252 255 259 263 269 274 280 295 306 320 339 336 323 318 322 339 354 353 345 339 337 335 335 336 335 331 326 321 314 308 308 309 309 307 305 302 299 297 295 293 290 288 284 279 275 272 269 267 264
154 180 217 151 190 248 246 160 142 141 170 244 241 229 221 217 217 218 221 227 222 214 218 224 231 247 248 161 203 235 194 196 227 228 223 233 237 239 241 247 257 266 271 278 290 300 308 312 306 303 317 337 352 356 349 338 332 337 342 341 341 341 336 332 326 318 315 316 316 315 315 313 308 305 303 302 299 296 291 285 280 276 273 272 270 266
113 147 209 175 201 246 237 117 114 158 217 237 231 216 216 217 214 214 221 227 224 216 220 233 243 256 247 180 214 230 214 218 230 223 222 224 220 232 243 250 254 257 270 284 292 298 300 302 315 329 344 357 357 350 351 352 346 347 346 343 343 342 338 334 329 324 321 322 323 323 323 320 315 310 309 308 304 299 292 286 282 280 278 275 272 266
123 142 195 170 200 239 149 107 163 222 228 239 238 195 209 216 213 214 224 229 225 218 224 240 252 253 240 225 227 226 226 241 218 193 237 237 212 229 258 276 269 256 276 296 294 296 309 326 343 351 356 357 351 351 1 4 355 349 346 344 343 342 338 333 328 327 328 329 331 331 330 327 322 317 315 313 309 302 296 291 287 284 282 279 273 268
174 166 168 163 178 187 130 175 219 247 260 265 265 218 208 213 209 213 232 241 231 215 215 229 242 246 243 243 244 209 187 253 298 232 255 300 350 263 250 272 293 273 283 298 287 321 356 1 352 348 347 348 351 356 1 360 352 347 344 343 342 341 338 333 330 332 335 335 336 335 334 332 328 323 322 320 314 308 302 297 293 290 287 282 276 271
182 164 150 202 203 198 216 221 236 304 304 260 239 229 203 174 180 190 224 244 231 209 207 221 237 246 248 247 246 205 131 121 290 279 281 7 3 4 84 82 41 25 1 7 17 17 14 5 354 350 347 348 356 1 358 354 349 345 342 340 339 338 336 333 333 338 338 336 335 334 333 332 329 326 324 322 317 311 306 302 297 294 290 283 277 273
181 180 176 199 212 190 219 237 237 247 249 242 231 229 206 180 168 167 200 243 233 199 202 216 233 243 247 247 239 163 120 189 258 258 248 12 357 10 31 28 26 25 21 19 15 9 6 359 353 354 352 352 359 2 356 351 348 344 341 339 338 336 332 330 334 338 335 332 332 330 329 328 325 322 320 317 314 309 306 302 298 296 291 284 278 275
185 191 179 189 217 199 210 240 223 215 246 250 241 253 232 173 138 138 193 249 250 197 198 210 226 239 244 242 210 143 148 226 248 232 170 14 358 11 17 6 10 17 17 17 13 3 358 354 353 357 358 357 357 357 353 349 346 344 340 339 337 332 328 330 334 333 329 327 326 324 323 322 319 317 314 312 309 306 303 301 298 295 290 284 279 278
185 186 182 198 217 216 223 245 243 233 262 249 228 247 243 138 116 128 212 247 274 325 227 207 223 246 246 221 169 150 182 227 226 182 141 55 0 14 25 12 4 2 2 6 9 4 360 360 358 355 353 351 350 350 350 347 344 343 340 339 335 329 328 331 331 328 324 322 321 319 318 317 315 313 311 309 308 306 302 299 296 293 289 284 281 279
187 182 194 205 217 219 220 235 250 248 250 237 215 209 188 138 134 183 223 231 113 30 12 83 101 331 332 135 134 157 201 216 150 129 97 62 38 21 20 17 10 6 4 3 4 3 360 358 356 349 344 344 345 348 349 346 343 341 339 335 329 326 329 329 326 324 322 319 317 316 315 314 312 311 310 309 308 306 302 299 296 292 289 285 281 278
188 190 198 203 217 224 217 228 247 249 252 247 202 167 161 167 201 211 208 76 93 92 63 66 63 38 44 68 82 106 114 63 70 72 57 56 50 24 11 13 11 9 7 5 6 5 357 351 349 346 344 345 346 346 348 346 341 338 334 327 323 325 328 326 324 323 320 317 316 315 314 313 312 311 311 310 308 304 301 298 296 292 288 285 281 276
179 183 202 196 203 213 211 221 231 237 293 8 69 151 174 192 221 201 98 55 65 83 73 69 57 41 54 68 67 73 76 56 41 37 31 27 29 17 5 7 4 359 359 358 359 0 353 345 343 340 339 342 344 345 347 344 337 333 326 321 323 327 326 323 323 322 319 316 315 314 314 314 312 311 310 309 307 302 298 296 294 291 287 283 279 275
187 189 206 201 192 196 207 218 221 236 300 316 135 147 170 220 251 107 94 67 46 50 59 69 59 44 65 88 86 81 76 55 33 30 20 1 359 357 356 1 359 354 352 350 349 350 348 339 333 330 332 337 339 340 342 340 333 325 318 319 326 328 324 323 323 321 318 316 315 313 313 312 311 309 307 306 305 301 296 295 294 291 287 282 276 273
208 183 172 188 200 188 180 191 210 228 299 352 77 111 101 70 61 90 99 90 59 27 32 64 67 52 66 92 99 94 82 68 58 53 20 342 331 333 339 348 351 348 345 342 342 345 343 336 330 327 328 333 338 338 338 338 332 320 315 322 327 327 324 324 323 319 317 315 313 312 312 311 309 308 307 306 306 301 297 297 294 290 287 282 275 269
214 132 87 87 193 189 88 116 135 129 89 66 63 71 80 69 47 66 89 93 84 59 58 77 83 65 62 81 94 88 75 76 104 110 56 292 298 316 326 337 347 349 344 340 341 343 342 338 335 332 329 331 335 336 334 334 331 322 319 324 327 327 325 323 320 317 316 315 313 313 312 311 309 309 309 309 307 303 299 296 292 288 285 280 274 268
266 157 107 114 165 163 137 170 157 136 125 112 92 78 74 63 42 47 74 81 72 57 52 61 69 62 56 62 72 78 67 55 62 69 173 226 256 288 313 337 346 345 341 338 338 339 340 337 333 332 328 325 328 330 329 329 328 325 323 324 326 327 326 322 319 317 315 314 314 313 312 311 310 310 310 310 308 305 300 295 290 285 280 276 271 267
239 157 150 172 178 161 160 175 144 101 75 78 83 91 95 83 69 65 67 68 63 51 36 40 54 58 50 45 44 45 52 49 35 352 312 272 225 231 312 340 340 337 334 334 333 334 335 332 327 326 322 320 322 325 324 323 324 325 325 325 327 328 325 321 318 316 312 311 311 310 309 308 307 306 307 306 305 302 298 294 290 283 278 275 270 266
121 149 174 166 151 115 77 126 123 97 66 73 89 82 82 100 106 96 84 77 68 49 27 33 54 63 59 45 30 22 31 28 10 351 333 321 324 346 350 344 341 338 335 333 334 334 333 330 326 322 318 316 319 321 320 320 322 325 326 327 329 329 325 320 318 314 310 308 307 305 305 304 302 301 300 300 300 299 296 293 290 284 281 279 274 268
138 173 177 108 133 175 197 173 157 143 169 183 158 135 108 113 120 112 100 87 74 55 28 33 53 64 60 48 35 24 13 359 356 350 333 323 339 348 347 343 340 337 336 336 335 334 333 331 329 324 320 320 322 322 321 321 323 326 328 329 331 330 325 320 317 312 307 305 303 302 302 301 299 298 297 296 297 298 298 296 293 286 281 280 279 274
171 185 175 148 171 218 201 175 162 135 120 165 153 146 148 142 127 121 113 104 92 68 39 45 51 43 36 32 28 24 13 353 347 342 329 325 337 342 341 339 333 330 332 336 335 333 332 332 331 328 324 323 324 323 321 322 324 327 329 329 330 328 324 321 316 309 305 303 301 301 301 299 297 296 296 294 294 294 295 296 295 290 282 277 277 278